Wind_Speed
36 36 38 39 40 41 43 44 45 44 44 43 41 42 43 42 42 42 43 43 43 43 43 43 42 42 42 42 42 43 43 43 44 44 44 45 45 45 46 47 48 49 50 50
35 35 36 38 38 39 40 41 43 42 42 42 42 42 42 43 41 41 42 42 43 43 42 42 42 42 43 43 43 43 44 43 44 44 44 44 44 45 45 46 48 49 50 51
33 33 34 36 35 36 37 39 40 39 38 38 40 40 40 40 40 41 41 42 42 42 42 42 42 42 42 43 43 44 44 44 43 43 43 43 44 43 44 45 46 47 49 51
30 31 32 33 33 34 36 36 37 38 36 36 37 37 37 37 38 39 41 41 42 42 43 43 43 43 43 42 42 43 44 44 44 43 42 42 43 43 43 44 45 46 46 48
25 27 29 30 31 31 33 34 35 36 36 36 36 37 37 37 38 38 38 39 40 41 41 42 42 42 42 42 42 42 43 43 44 44 43 43 43 43 43 43 44 45 46 46
20 23 25 25 27 28 30 31 32 33 34 35 36 37 37 38 38 38 37 37 37 37 39 40 41 41 41 40 41 41 41 42 42 43 43 43 42 41 42 42 42 43 43 44
19 20 21 21 22 25 27 29 29 30 32 34 36 36 36 36 36 36 35 35 36 36 36 37 38 39 39 39 38 39 40 41 41 41 42 42 41 42 42 42 42 42 42 43
17 18 18 18 19 22 24 26 27 28 29 31 33 34 35 35 34 34 33 34 34 34 34 35 35 36 37 37 38 38 39 40 40 40 40 41 41 41 42 42 43 43 43 44
15 17 17 17 18 20 21 22 23 25 26 27 28 29 31 32 32 32 32 32 33 33 33 34 35 35 36 37 37 38 39 40 40 40 40 41 41 42 42 43 43 42 43 44
13 14 16 16 17 18 19 20 21 21 23 24 25 26 28 28 28 29 29 30 31 32 32 33 33 34 35 36 36 37 38 38 39 40 39 40 41 41 42 41 42 42 43 44
12 13 15 16 17 18 19 19 21 21 22 23 25 26 27 27 27 28 28 29 30 31 32 32 33 34 35 35 35 36 37 37 38 39 39 39 39 39 40 41 41 42 42 42
11 13 14 15 17 17 18 19 19 20 21 23 24 25 26 27 27 27 28 29 30 30 31 32 33 33 34 34 34 35 35 36 36 36 37 37 38 39 39 39 39 39 40 40
12 13 15 15 16 16 16 17 19 19 20 21 23 24 25 26 26 27 27 28 29 30 30 31 31 31 32 32 32 33 34 34 34 34 35 35 36 36 36 36 37 37 38 39
13 14 15 16 17 16 16 16 16 17 19 20 21 22 23 24 25 26 26 26 27 28 29 28 28 29 30 31 31 32 33 33 34 34 33 33 33 34 34 34 35 36 37 38
14 14 14 15 16 16 15 15 15 16 17 18 19 21 22 23 24 24 24 25 26 26 27 27 27 28 29 30 31 31 32 33 33 32 32 32 32 32 33 33 34 35 36 36
14 14 14 14 14 15 15 15 15 15 16 17 18 19 20 21 22 22 23 24 25 26 26 26 27 27 28 29 29 30 30 31 32 32 32 32 32 32 32 33 33 34 34 35
14 14 14 14 14 15 15 15 16 16 16 17 18 18 18 18 19 21 21 22 24 24 26 26 26 27 27 28 28 29 29 30 31 32 32 32 33 33 32 32 32 33 33 34
15 15 15 15 15 15 16 16 16 16 17 17 17 17 17 17 18 19 21 22 22 23 23 24 24 25 26 27 28 29 30 30 31 31 32 32 32 32 31 32 32 32 32 32
16 16 16 16 16 16 17 17 17 18 18 18 18 18 18 18 18 19 20 21 21 22 23 24 24 25 27 27 27 28 30 30 31 31 31 32 32 31 32 32 31 31 31 32
16 17 17 17 17 17 18 18 19 19 19 19 19 19 20 20 20 21 21 21 21 22 23 24 24 25 26 27 27 28 29 30 30 30 31 32 32 32 32 31 31 31 32 32
16 17 17 17 18 18 18 19 19 20 20 20 20 20 21 21 21 21 21 22 22 23 23 24 24 25 26 27 27 28 29 29 29 29 30 31 31 31 31 30 31 31 32 32
17 17 17 17 18 18 18 19 19 19 20 20 20 21 22 22 22 21 21 21 22 22 23 23 24 24 25 25 26 26 27 27 27 28 28 29 29 29 29 29 29 30 31 32
17 17 17 17 18 18 18 18 18 19 19 19 20 20 21 21 21 21 21 21 21 21 22 22 22 22 23 23 24 25 25 25 26 26 26 27 27 28 28 28 29 29 30 30
18 18 17 17 17 17 18 18 18 18 18 18 18 18 18 19 19 20 19 20 20 20 21 21 21 22 22 22 23 23 24 24 25 25 25 26 26 27 28 28 29 29 29 30
18 18 18 18 18 17 17 18 18 18 17 17 17 17 17 17 17 18 18 18 19 19 19 19 19 19 20 20 20 21 21 22 22 23 23 23 24 25 26 27 28 28 28 29
19 19 19 19 18 17 17 17 16 16 16 16 16 17 17 18 18 17 17 18 18 18 18 18 18 18 19 19 19 19 20 20 20 20 21 22 23 23 24 25 25 26 27 27
19 19 19 18 18 17 17 17 16 16 16 16 16 17 17 17 17 17 17 18 18 18 18 18 18 19 19 19 19 19 20 20 20 20 20 21 21 22 22 22 23 23 24 24
Wind_Direction
242 241 241 242 241 239 241 242 243 243 243 243 245 246 246 246 246 246 246 246 246 246 245 246 247 247 246 247 247 247 247 248 249 250 250 250 250 250 249 249 248 248 247 247
244 243 242 240 240 240 241 243 245 245 246 245 246 246 246 245 245 246 246 246 246 246 246 246 247 247 247 248 248 248 248 249 250 251 250 249 249 250 250 249 249 249 249 248
245 242 242 242 240 241 241 243 244 244 245 245 245 245 245 246 246 246 246 246 247 247 247 246 246 247 248 248 248 248 249 250 251 251 250 250 250 251 251 250 249 250 250 249
246 243 243 242 241 242 242 240 241 243 244 245 245 244 244 245 245 245 245 246 247 247 247 247 246 247 248 248 247 247 248 249 250 251 251 251 250 249 250 251 251 252 252 251
245 244 244 243 242 243 242 241 241 242 242 243 244 244 244 245 246 246 246 246 247 246 246 245 246 246 247 247 246 246 247 248 250 250 251 251 250 250 251 251 251 251 250 250
244 245 244 246 244 245 245 244 241 241 242 243 244 245 244 245 246 246 247 247 247 247 246 246 246 246 246 245 246 246 246 247 249 250 250 251 251 251 252 252 252 252 251 251
246 247 247 246 247 246 246 245 244 244 245 244 245 246 244 243 244 244 246 247 247 247 247 247 247 247 246 245 245 245 245 246 248 249 250 251 251 252 253 253 254 254 254 253
251 250 248 245 248 248 249 246 246 246 245 245 244 244 242 242 243 244 245 246 246 245 246 247 247 247 246 246 245 245 245 246 248 250 251 251 253 254 255 256 257 256 255 254
256 254 249 247 250 250 248 246 245 246 246 245 243 241 240 241 242 245 246 245 245 245 245 246 247 247 248 248 248 247 246 247 248 249 251 253 254 255 256 258 257 256 256 256
255 255 253 250 250 252 249 247 247 247 248 246 244 242 241 241 243 244 245 245 245 245 244 243 244 245 248 248 249 248 248 248 249 250 252 254 255 256 257 257 257 257 257 257
258 259 257 255 256 256 255 251 248 249 249 247 245 244 243 243 243 245 245 245 245 246 245 244 244 246 248 248 248 248 248 248 250 251 253 255 257 258 258 257 257 257 257 257
268 265 262 260 259 260 259 255 252 250 248 247 248 247 245 244 244 246 247 247 247 247 247 247 247 247 247 247 247 248 248 248 249 251 253 255 256 258 257 257 257 257 256 256
271 268 266 264 263 261 260 256 253 253 251 250 249 249 248 247 247 247 248 248 249 249 249 249 248 248 247 247 247 248 248 247 249 251 253 254 255 256 256 255 256 256 257 257
275 270 267 263 262 261 259 255 254 255 255 254 254 252 251 250 250 249 250 249 250 250 250 250 249 248 247 248 249 250 249 248 249 250 252 253 254 254 255 256 256 257 258 259
278 276 273 267 264 262 260 258 255 253 254 255 254 254 253 253 253 252 252 253 253 252 251 251 250 249 248 249 250 250 249 249 250 251 253 253 254 255 257 257 258 259 260 260
279 279 276 270 266 262 260 260 257 255 255 255 255 255 253 253 252 251 252 253 252 251 251 251 249 248 248 248 248 248 249 250 251 253 253 254 256 257 259 260 260 260 261 261
281 279 276 272 267 263 261 260 259 259 259 258 258 257 256 256 254 252 252 252 251 251 250 249 248 247 247 248 248 248 249 250 252 254 255 256 257 259 260 263 263 262 261 261
283 281 278 275 271 263 261 261 262 263 264 264 262 261 261 258 257 254 252 251 250 249 248 246 247 247 250 250 251 251 252 252 254 255 255 257 258 259 261 262 262 262 260 260
285 282 279 277 275 270 267 265 264 265 265 263 262 262 261 261 260 257 254 251 249 249 248 247 249 251 251 252 252 252 253 253 253 255 257 258 259 260 261 261 262 261 261 261
287 284 281 278 276 273 270 267 266 266 266 264 262 261 261 261 261 258 254 252 250 249 250 251 253 253 252 253 253 254 255 256 256 257 259 259 260 261 261 261 261 261 261 263
288 287 284 280 277 275 272 269 268 268 267 265 263 261 260 260 260 257 252 251 250 249 250 252 253 254 254 255 256 257 258 258 259 259 259 259 259 260 260 261 262 262 262 264
289 288 286 283 281 279 276 273 271 270 268 265 263 262 261 259 258 255 252 250 250 251 251 252 253 254 255 256 257 258 258 258 258 260 260 259 259 260 261 261 262 263 263 265
292 290 288 285 282 280 278 276 274 272 269 267 265 263 261 258 256 255 253 251 250 251 251 251 252 254 255 256 257 258 258 258 259 260 260 260 261 261 261 263 264 265 266 266
291 291 289 286 284 280 277 276 275 273 271 268 266 265 262 258 255 252 250 249 250 252 252 252 253 254 255 256 257 258 258 259 260 260 261 261 262 263 265 265 266 267 267 268
289 289 288 286 284 281 278 277 276 273 269 266 264 262 260 257 255 253 250 249 249 251 252 252 253 254 255 256 258 259 259 261 262 262 262 264 265 266 267 267 267 268 268 268
289 289 289 286 284 282 280 278 276 272 268 266 264 262 261 260 257 256 254 252 251 251 252 253 255 256 257 258 259 260 261 263 264 265 265 266 267 268 269 270 270 270 269 269
289 289 289 288 285 282 280 278 276 273 270 268 266 264 262 260 259 259 257 256 254 255 256 257 258 259 259 259 260 262 263 264 266 266 267 268 269 270 271 273 273 273 271 271
Height
5482 5486 5489 5494 5499 5503 5506 5510 5514 5520 5525 5532 5536 5539 5542 5546 5550 5554 5558 5561 5565 5568 5571 5574 5577 5580 5583 5585 5588 5590 5593 5596 5599 5602 5605 5608 5611 5615 5618 5621 5625 5629 5632 5636
5473 5477 5480 5484 5489 5492 5496 5500 5504 5510 5515 5520 5524 5527 5531 5535 5539 5542 5546 5549 5553 5556 5560 5563 5566 5569 5572 5574 5577 5579 5582 5585 5588 5591 5593 5596 5600 5603 5606 5610 5613 5617 5620 5624
5465 5469 5471 5476 5480 5483 5487 5491 5496 5500 5506 5509 5513 5516 5520 5524 5528 5531 5534 5538 5541 5545 5548 5551 5554 5557 5560 5563 5565 5568 5571 5574 5577 5579 5582 5585 5588 5591 5595 5598 5601 5604 5608 5611
5457 5462 5464 5470 5472 5475 5478 5483 5486 5491 5495 5499 5502 5506 5510 5513 5517 5520 5523 5526 5529 5532 5536 5539 5542 5545 5548 5551 5553 5556 5560 5563 5566 5568 5571 5574 5576 5580 5583 5586 5589 5592 5595 5598
5451 5454 5457 5462 5464 5467 5470 5474 5478 5481 5485 5488 5492 5496 5500 5503 5506 5509 5512 5515 5518 5521 5524 5528 5531 5534 5537 5540 5542 5545 5548 5552 5555 5557 5560 5562 5565 5568 5571 5574 5577 5580 5583 5586
5445 5448 5451 5455 5457 5459 5463 5466 5469 5472 5475 5479 5482 5486 5491 5493 5496 5499 5502 5504 5507 5510 5513 5516 5519 5522 5525 5528 5531 5535 5538 5541 5543 5546 5549 5552 5554 5557 5560 5563 5566 5568 5571 5574
5440 5442 5445 5448 5450 5452 5457 5459 5461 5463 5466 5469 5472 5476 5480 5483 5486 5489 5492 5495 5497 5500 5503 5505 5508 5511 5514 5518 5521 5524 5527 5530 5533 5536 5538 5541 5543 5546 5549 5551 5554 5557 5560 5563
5436 5438 5442 5442 5444 5447 5448 5450 5453 5455 5458 5460 5463 5466 5470 5473 5477 5480 5482 5485 5487 5490 5493 5496 5498 5501 5504 5507 5510 5513 5516 5520 5522 5525 5528 5530 5532 5535 5537 5539 5542 5545 5548 5551
5433 5436 5436 5437 5438 5440 5441 5443 5446 5448 5450 5453 5455 5458 5462 5465 5468 5471 5473 5476 5478 5481 5484 5487 5489 5492 5495 5497 5500 5503 5506 5509 5512 5514 5517 5519 5522 5524 5526 5528 5530 5533 5535 5538
5429 5430 5431 5432 5433 5434 5436 5438 5440 5441 5444 5446 5448 5451 5454 5457 5459 5462 5464 5467 5469 5472 5475 5477 5480 5482 5485 5487 5490 5493 5496 5499 5502 5504 5507 5509 5511 5513 5515 5517 5519 5521 5523 5525
5426 5427 5428 5429 5429 5430 5431 5432 5434 5436 5437 5439 5442 5444 5446 5449 5451 5454 5456 5458 5461 5463 5466 5468 5470 5472 5475 5477 5480 5483 5486 5488 5491 5494 5496 5498 5500 5502 5504 5506 5507 5509 5511 5513
5423 5423 5423 5424 5424 5425 5426 5427 5429 5430 5432 5433 5435 5437 5439 5441 5444 5446 5448 5451 5453 5455 5457 5459 5460 5463 5465 5467 5470 5473 5475 5478 5481 5484 5486 5488 5490 5492 5493 5495 5496 5498 5500 5502
5419 5419 5419 5420 5420 5420 5421 5422 5423 5424 5426 5427 5429 5430 5432 5434 5436 5438 5440 5442 5444 5446 5448 5449 5451 5453 5456 5458 5461 5463 5466 5469 5471 5474 5476 5478 5479 5481 5482 5484 5486 5488 5489 5491
5416 5416 5416 5416 5416 5416 5417 5417 5418 5419 5420 5421 5422 5424 5425 5427 5429 5430 5432 5434 5436 5438 5439 5441 5443 5445 5447 5450 5452 5455 5457 5460 5462 5465 5467 5468 5470 5471 5473 5475 5476 5477 5479 5481
5413 5412 5412 5411 5412 5412 5412 5413 5413 5414 5415 5416 5417 5418 5419 5420 5422 5423 5425 5427 5428 5430 5432 5433 5435 5437 5439 5442 5444 5446 5449 5451 5453 5455 5457 5459 5461 5462 5464 5465 5466 5468 5469 5471
5409 5409 5408 5408 5408 5408 5408 5408 5409 5409 5410 5411 5411 5412 5413 5414 5415 5416 5418 5419 5421 5422 5424 5426 5428 5430 5432 5434 5436 5438 5440 5443 5445 5447 5449 5450 5452 5453 5455 5456 5457 5458 5459 5461
5406 5405 5404 5404 5404 5404 5404 5404 5404 5405 5405 5406 5406 5407 5407 5408 5409 5410 5411 5412 5413 5415 5417 5418 5420 5422 5424 5426 5428 5430 5432 5434 5436 5438 5439 5441 5442 5444 5445 5446 5447 5448 5449 5451
5402 5401 5400 5399 5399 5399 5399 5399 5400 5400 5400 5400 5401 5401 5402 5402 5403 5404 5405 5406 5407 5408 5410 5411 5413 5415 5417 5419 5420 5422 5424 5425 5427 5428 5430 5431 5432 5434 5435 5436 5438 5439 5440 5441
5397 5396 5396 5395 5394 5394 5394 5394 5395 5395 5395 5395 5395 5396 5396 5397 5397 5398 5398 5400 5401 5402 5403 5405 5407 5408 5410 5411 5412 5414 5415 5417 5418 5419 5420 5422 5423 5424 5425 5427 5428 5429 5431 5432
5393 5392 5391 5390 5389 5389 5388 5389 5389 5389 5389 5389 5389 5389 5390 5390 5391 5391 5392 5393 5394 5395 5396 5398 5399 5401 5402 5403 5405 5406 5407 5408 5409 5410 5411 5412 5414 5415 5416 5417 5418 5419 5421 5422
5388 5386 5385 5384 5384 5383 5383 5382 5382 5382 5382 5382 5382 5383 5383 5383 5384 5385 5385 5387 5387 5388 5390 5391 5392 5393 5394 5395 5396 5398 5399 5400 5401 5402 5402 5403 5404 5405 5406 5407 5409 5410 5411 5412
5383 5381 5380 5379 5378 5377 5376 5376 5376 5375 5375 5375 5375 5375 5376 5376 5377 5378 5379 5380 5381 5382 5383 5384 5385 5386 5386 5387 5388 5389 5390 5391 5392 5393 5394 5395 5396 5396 5397 5398 5399 5400 5401 5402
5377 5376 5374 5373 5372 5371 5370 5370 5369 5369 5368 5368 5368 5368 5369 5369 5370 5371 5372 5373 5374 5375 5376 5376 5377 5378 5379 5380 5381 5382 5382 5383 5384 5385 5386 5386 5387 5388 5389 5390 5391 5391 5392 5392
5372 5371 5369 5368 5367 5366 5365 5364 5363 5363 5362 5362 5362 5362 5362 5363 5363 5364 5365 5366 5367 5368 5369 5370 5371 5372 5372 5373 5374 5374 5375 5375 5376 5377 5378 5378 5379 5380 5380 5381 5381 5382 5382 5382
5367 5365 5364 5362 5361 5360 5359 5358 5358 5357 5356 5356 5356 5356 5357 5357 5358 5358 5359 5360 5361 5362 5363 5363 5364 5365 5366 5366 5367 5367 5368 5368 5369 5369 5370 5371 5371 5372 5372 5372 5372 5373 5373 5373
5361 5360 5358 5356 5355 5354 5353 5352 5352 5351 5351 5351 5351 5351 5351 5352 5352 5353 5353 5354 5355 5356 5357 5358 5358 5359 5360 5360 5361 5361 5362 5362 5362 5362 5363 5363 5364 5364 5364 5364 5363 5363 5363 5363
5355 5354 5352 5351 5350 5349 5348 5347 5346 5346 5346 5346 5346 5346 5346 5346 5347 5347 5348 5349 5349 5350 5351 5352 5352 5353 5354 5354 5355 5355 5355 5356 5356 5356 5356 5356 5356 5356 5356 5356 5355 5355 5355 5355